BY70-3 (46839 NORAD) Tracking and Keplerian Element Data

This shows tracking and keplerian element data for the satellite.

Feedback or suggestion? Click here.




ElementValue
Catalog46839
NameBY70-3
Epoch Orbit11446
Epoch Day325.24206917
Epoch Year2022
RAAN35.9479
Inclination97.1814
Eccentricity0.0005568
Argument of Perigee123.0249
Mean Anonmoly320.1289
Mean Motion15.51414002
Decay Rate0.00039154
L11 46839U 20079N 22325.24206917 .00039154 00000+0 66352-3 0 9999
L22 46839 97.1814 35.9479 0005568 123.0249 320.1289 15.51414002114468



Live tracking and technical data element details for BY70-3 (NORAD 46839). BY70-3 can be tracked NOW for your location showing map with azimuth and elevation plus other details from your city location.







IsCatalogInMostPopularTable: catalog: 46839, numindb: 159
Update: records affected: 1



GetName: 46839 BY70-3

Hit Count: updated at: Mon, 28 Nov 2022 04:57:15 GMT